Weather History for EBOS - March, 2013

Change the Weather History Date:

Friday, March 1, 2013

  Actual Average Record
Temperature  
Mean Temperature 38 °F -  
Max Temperature 41 °F 48 °F 55 °F (1997)
Min Temperature 34 °F 37 °F 26 °F (2005)
Degree Days  
Heating Degree Days 28    
Moisture  
Dew Point 32 °F    
Average Humidity 81    
Maximum Humidity 93    
Minimum Humidity 58    
Precipitation  
Precipitation 0.00 in - - ()
Sea Level Pressure  
Sea Level Pressure 30.35 in    
Wind  
Wind Speed 7 mph ()    
Max Wind Speed 14 mph    
Max Gust Speed 22 mph    
Visibility 4.6 miles    
Events Rain    
Averages and records for this station are not official NWS values.
T = Trace of Precipitation, MM = Missing Value Source: Averaged Metar Reports

Daily Weather History Graph

Daily Weather History Graph

Search for Another Location

Airport or City:

Trip Planner

Search our weather history database for the weather conditions in past years. The results will help you decide how hot, cold, wet, or windy it might be!

Date:

Astronomy

Mar. 01, 2013 Rise Set
Actual Time 7:33 AM CET 6:29 PM CET
Civil Twilight 6:59 AM CET 7:02 PM CET
Nautical Twilight 6:21 AM CET 7:41 PM CET
Astronomical Twilight 5:43 AM CET 8:19 PM CET
Moon 11:21 PM CET (3/1) 8:38 AM CET (3/1)
Length of Visible Light 12h 02m
Length of Day
10h 56m
Waning Gibbous, 85% of the Moon is Illuminated
Mar 1
Waning Gibbous
Mar 4
Last Quarter
Mar 11
New
Mar 19
First Quarter
Mar 27
Full

Hourly Weather History & Observations

Time (CET) Temp. Windchill Dew Point Humidity Pressure Visibility Wind Dir Wind Speed Gust Speed Precip Events Conditions
12:20 AM 35.6 °F 29.9 °F 30.2 °F 81% 30.36 in 2.8 mi NE 6.9 mph - N/A   Mostly Cloudy
12:50 AM 35.6 °F 28.6 °F 30.2 °F 81% 30.36 in 2.8 mi ENE 9.2 mph - N/A   Mostly Cloudy
1:00 AM 36 °F - 31 °F 73% 30.38 in 3 mi ENE 8.9 mph - -   Mist
1:20 AM 35.6 °F 28.6 °F 30.2 °F 81% 30.36 in 2.5 mi ENE 9.2 mph - N/A   Mostly Cloudy
1:50 AM 35.6 °F 28.0 °F 30.2 °F 81% 30.36 in 2.5 mi ENE 10.4 mph - N/A   Mostly Cloudy
2:20 AM 35.6 °F 28.6 °F 30.2 °F 81% 30.36 in 2.5 mi ENE 9.2 mph - N/A   Mostly Cloudy
2:50 AM 35.6 °F 29.2 °F 30.2 °F 81% 30.36 in 2.5 mi NE 8.1 mph - N/A   Mostly Cloudy
3:20 AM 35.6 °F 29.9 °F 30.2 °F 81% 30.36 in 2.5 mi ENE 6.9 mph - N/A   Mostly Cloudy
3:50 AM 35.6 °F 31.7 °F 32.0 °F 87% 30.33 in 2.5 mi NE 4.6 mph - N/A   Mostly Cloudy
4:00 AM 35 °F - 31 °F 81% 30.35 in 2 mi NE 4.5 mph - -   Mist
4:20 AM 35.6 °F 32.8 °F 32.0 °F 87% 30.33 in 2.5 mi ENE 3.5 mph - N/A   Mostly Cloudy
4:50 AM 35.6 °F - 32.0 °F 87% 30.33 in 2.5 mi ESE 2.3 mph - N/A   Mostly Cloudy
5:20 AM 33.8 °F - 32.0 °F 93% 30.33 in 2.5 mi Variable 2.3 mph - N/A   Mostly Cloudy
5:50 AM 33.8 °F - 32.0 °F 93% 30.33 in 2.5 mi Variable 1.2 mph - N/A   Mostly Cloudy
6:20 AM 35.6 °F 32.8 °F 32.0 °F 87% 30.33 in 2.5 mi NE 3.5 mph - N/A   Mostly Cloudy
6:50 AM 35.6 °F - 32.0 °F 87% 30.33 in 2.2 mi NNE 2.3 mph - N/A   Mostly Cloudy
7:00 AM 35 °F - 32 °F 83% 30.34 in 2 mi NNE 2.2 mph - -   Mist
7:20 AM 35.6 °F - 32.0 °F 87% 30.33 in 1.9 mi NNW 2.3 mph - N/A   Light Drizzle
7:50 AM 35.6 °F - 32.0 °F 87% 30.33 in 1.0 mi NNW 2.3 mph - N/A   Light Drizzle
8:20 AM 35.6 °F 32.8 °F 32.0 °F 87% 30.33 in 0.7 mi NNW 3.5 mph - N/A   Light Drizzle
8:50 AM 35.6 °F - 33.8 °F 93% 30.33 in 1.5 mi NNW 2.3 mph - N/A   Light Drizzle
9:20 AM 35.6 °F 31.7 °F 33.8 °F 93% 30.33 in 1.2 mi NNW 4.6 mph - N/A   Light Drizzle
9:50 AM 35.6 °F 30.7 °F 33.8 °F 93% 30.33 in 1.4 mi NNW 5.8 mph - N/A   Light Drizzle
10:00 AM 36 °F - 33 °F 87% 30.36 in 1 mi NNW 6.7 mph - - Rain Light Drizzle
10:20 AM 37.4 °F 32.8 °F 33.8 °F 87% 30.36 in 1.7 mi NNW 5.8 mph - N/A   Mostly Cloudy
10:50 AM 37.4 °F 32.8 °F 33.8 °F 87% 30.36 in 2.2 mi NNW 5.8 mph - N/A   Mostly Cloudy
11:20 AM 39.2 °F 35.0 °F 35.6 °F 87% 30.36 in 3.7 mi North 5.8 mph - N/A   Mostly Cloudy
11:50 AM 41.0 °F 33.9 °F 35.6 °F 81% 30.36 in 3.7 mi NE 12.7 mph - N/A   Mostly Cloudy
12:20 PM 41.0 °F 33.9 °F 35.6 °F 81% 30.36 in 6.2 mi NE 12.7 mph - N/A   Mostly Cloudy
12:50 PM 41.0 °F 33.9 °F 35.6 °F 81% 30.36 in 6.2 mi NNE 12.7 mph - N/A   Mostly Cloudy
1:00 PM 41 °F - 36 °F 77% 30.37 in 9 mi NNE 13.4 mph - -   Partly Cloudy
1:20 PM 41.0 °F 34.3 °F 33.8 °F 76% 30.36 in 6.2 mi NNE 11.5 mph - N/A   Mostly Cloudy
1:50 PM 41.0 °F 34.7 °F 33.8 °F 76% 30.36 in 6.2 mi NNE 10.4 mph - N/A   Mostly Cloudy
2:20 PM 39.2 °F 32.0 °F 33.8 °F 81% 30.36 in 6.2 mi NNE 11.5 mph - N/A   Mostly Cloudy
2:50 PM 39.2 °F 31.2 °F 32.0 °F 75% 30.36 in 6.2 mi NNE 13.8 mph - N/A   Mostly Cloudy
3:20 PM 39.2 °F 31.6 °F 32.0 °F 75% 30.36 in 6.2 mi NNE 12.7 mph - N/A   Mostly Cloudy
3:50 PM 39.2 °F 32.0 °F 30.2 °F 70% 30.36 in 6.2 mi NE 11.5 mph - N/A   Mostly Cloudy
4:00 PM 40 °F - 30 °F 58% 30.37 in 11 mi NE 11.2 mph - -   Mostly Cloudy
4:20 PM 39.2 °F 32.5 °F 32.0 °F 75% 30.36 in 6.2 mi NNE 10.4 mph - N/A   Mostly Cloudy
4:50 PM 39.2 °F 32.5 °F 33.8 °F 81% 30.33 in 6.2 mi NNE 10.4 mph - N/A   Mostly Cloudy
5:20 PM 39.2 °F 32.5 °F 33.8 °F 81% 30.33 in 6.2 mi North 10.4 mph 21.9 mph N/A   Mostly Cloudy
5:50 PM 37.4 °F 29.8 °F 33.8 °F 87% 30.33 in 6.2 mi NNE 11.5 mph - N/A   Mostly Cloudy
6:20 PM 37.4 °F 30.3 °F 33.8 °F 87% 30.33 in 6.2 mi NNE 10.4 mph - N/A   Mostly Cloudy
6:50 PM 37.4 °F 29.8 °F 32.0 °F 81% 30.36 in 6.2 mi NNE 11.5 mph - N/A   Mostly Cloudy
7:00 PM 38 °F - 32 °F 73% 30.36 in 12 mi NNE 11.2 mph - -   Mostly Cloudy
7:20 PM 37.4 °F 29.8 °F 32.0 °F 81% 30.36 in 6.2 mi NNE 11.5 mph - N/A   Mostly Cloudy
7:50 PM 37.4 °F 29.8 °F 32.0 °F 81% 30.36 in 6.2 mi NE 11.5 mph - N/A   Mostly Cloudy
8:20 PM 37.4 °F 29.8 °F 33.8 °F 87% 30.36 in 6.2 mi NNE 11.5 mph - N/A   Mostly Cloudy
8:50 PM 37.4 °F 29.8 °F 32.0 °F 81% 30.36 in 6.2 mi NE 11.5 mph - N/A   Mostly Cloudy
9:20 PM 37.4 °F 29.8 °F 30.2 °F 75% 30.36 in 6.2 mi NE 11.5 mph - N/A   Mostly Cloudy
9:50 PM 37.4 °F 29.8 °F 30.2 °F 75% 30.36 in 6.2 mi NE 11.5 mph - N/A   Mostly Cloudy
10:00 PM 37 °F - 30 °F 67% 30.37 in 12 mi NE 11.2 mph - -   Mostly Cloudy
10:20 PM 37.4 °F 29.8 °F 32.0 °F 81% 30.36 in 6.2 mi NE 11.5 mph - N/A   Mostly Cloudy
10:50 PM 37.4 °F 29.8 °F 30.2 °F 75% 30.36 in 6.2 mi NE 11.5 mph - N/A   Mostly Cloudy
11:20 PM 37.4 °F 29.8 °F 30.2 °F 75% 30.36 in 6.2 mi NE 11.5 mph - N/A   Mostly Cloudy
11:50 PM 37.4 °F 30.8 °F 30.2 °F 75% 30.36 in 6.2 mi NE 9.2 mph - N/A   Mostly Cloudy